Погода в Буссевке

Россия / Приморский край     44°38′06″N   132°58′59″E
темп.,
°C
ветер,
м/с
пор.,
м/с
влажн.,
%
обл.,
%
осадки,
мм/ч
давл.,
гПа
погр.,
м
22 января, пт
пт2201:00−16св23907 0.0 102422
04:00−17ссв339144 0.0 102354
07:00−18ссв2388100 0.0 102476
10:00−18ссв238896 0.0 102681
13:00−14ссв22800 0.0 1026262
16:00−13с11820 0.0 1026213
19:00−18всв11900 0.0 102820
22:00−19ююз11860 0.0 102920
23 января, сб
сб2301:00−19ююз12860 0.0 103020
04:00−19ю11850 0.0 103020
07:00−20юв11900 0.0 103120
10:00−17вюв11880 0.0 103225
13:00−12зсз11820 0.0 1030249
16:00−11с11860 0.0 1029171
19:00−16всв12920 0.0 103020
22:00−15юв12860 0.0 103020
24 января, вс
вс2401:00−16ю12850 0.0 103020
04:00−16ююв12810 0.0 102920
07:00−17вюв11800 0.0 102920
10:00−13ююв12780 0.0 103029
13:00−8сз22750 0.0 1029205
16:00−7ссз11810 0.0 1028109
19:00−13ссв11840 0.0 103021
22:00−13в11860 0.0 103121
25 января, пн
пн2501:00−14всв01880 0.0 103121
04:00−14св11890 0.0 103221
07:00−15вюв01900 0.0 103120
10:00−12св11870 0.0 103224
13:00−7ссз21835 0.0 1030190
16:00−7ссв129112 0.0 1028139
19:00−11св119615 0.0 102721
22:00−10ююз119157 0.0 102621
26 января, вт
вт2601:00−8юв2389100 0.0 102432
04:00−4юв31184100 0.0 1022363
07:00−2юв3697100 0.8 1019195
10:00−2ююв2998100 4.3 1018336
13:00+2ююз411100100 1.2 1015523
16:00+1юз4997100 1.3 1014350
19:00−5сз338930 0.0 101649
22:00−7зсз238647 0.1 101764